Location: Gollag?dem
(16.8053°N, 80.8024°E)
Time: 16:21:03
(UTC+00:00)

Cosmos 1932 - Pass Details

Date: 13 August 2020
Orbit: 923 x 1006 km, 65.0° (Epoch: 17 September)

Event Time Altitude Azimuth Distance (km) Brightness Sun altitude
Rises 22:44:48 0° 329° (NNW) 3,674 7.5 -22.4°
Reaches altitude 10° 22:47:26 10° 325° (NW) 2,714 6.7 -21.8°
Maximum altitude 22:53:36 55° 249° (WSW) 1,139 4.5 -20.5°
Drops below altitude 10° 22:59:37 10° 173° (S) 2,652 6.6 -19.1°
Sets 23:02:11 0° 169° (SSE) 3,585 7.4 -18.6°
